DMSP 5D-2 F13 DEB, 40525

Orbit data source: Space-Track

DMSP 5D-2 F13 DEB, 40525 is space debris in SSO originally from a launch on Fri, 24 Mar 1995 UTC launched from the Air Force Western Test Range (AFWTR). Debris objects in space refer to the collection of defunct objects orbiting the Earth. Examples of debris include non-operational satellites, rocket bodies, and fragments generated from explosions, collisions, or faulty payload assembly.

Loading next visibility...
Identifier
40525, 1995-015DM
Orbit
SSO
Country
Flag of USUS
Related business
Manufacturer
Unknown
Mission
Spacecraft
Bus & Motor
Unknown
Mass
Unknown
Launch date (UTC)
1995-03-24 (31 years ago)
Launch vehicle
Unknown
Launch site
Air Force Western Test Range (AFWTR)
Object type
Payload
Rocket body
Debris
Shape & HBR
Unknown shape, 0.1 m
Radar Cross Section
Small (<0.1 m²)

Expand to show TLE details & history
Last TLE update: 1 day ago

TLE from 1 day ago
0 DMSP 5D-2 F13 DEB
1 40525U 95015DM  25349.05594252  .00003818  00000-0  12824-2 0  9990
2 40525  98.6847  24.6514 0012117  86.4137 273.8435 14.37743442555672
Epoch: 2025-12-15T01:20Z
TLE epoch observation values (Epoch: 2025-12-15T01:20:33.433Z)
Latitude
-0.00003°
Longitude
-79.44789°
Altitude
768.333 km
Speed
7.47 km/s
True Right ascension
01h 38m 36s
True Declination
0° 00' 00"
Sunlit
Object was in full shadow at epoch
Visualization orbit readout
Latitude
Unknown
Longitude
Unknown
Altitude
Unknown
Speed
Unknown
Apparent Right ascension
Unknown
Apparent Declination
Unknown
Sunlit
N/A
Visualization observer readout
Local Sidereal Time
05:02:11
Azimuth
Unknown
Elevation
Unknown
Doppler factor
Unknown
Orbital elements
Apogee altitude
771.751 km
Perigee altitude
754.445 km
Semi-major axis
7,141.235 km
Eccentricity
0.00121
Inclination
98.6847°
RAAN
24.6514°
Arg. of periapsis
86.4137°
True anomaly
273.70495°
Mean anomaly
273.8435°
Eccentric anomaly
273.77423°
Mean motion
3.59653 °/min
Orbital period
100.1 mins
BSTAR
0.0012824
Loading maneuver chart data...
Computing Atmospheric mass density...

Documentation

Showing up to 5 results
|